Year,Month,Day,Hour,Minute,Value (Times are PST for temperature in C)
2016,05,04,00,00,10.30
2016,05,04,00,01,10.30
2016,05,04,00,02,10.30
2016,05,04,00,03,10.30
2016,05,04,00,04,10.30
2016,05,04,00,05,10.30
2016,05,04,00,06,10.30
2016,05,04,00,07,10.30
2016,05,04,00,08,10.10
2016,05,04,00,09,10.10
2016,05,04,00,10,10.10
2016,05,04,00,11,10.10
2016,05,04,00,12,10.10
2016,05,04,00,13,10.10
2016,05,04,00,14,10.00
2016,05,04,00,15,10.00
2016,05,04,00,16,9.90
2016,05,04,00,17,9.90
2016,05,04,00,18,9.80
2016,05,04,00,19,9.80
2016,05,04,00,20,9.70
2016,05,04,00,21,9.70
2016,05,04,00,22,9.60
2016,05,04,00,23,9.60
2016,05,04,00,24,9.50
2016,05,04,00,25,9.50
2016,05,04,00,26,9.50
2016,05,04,00,27,9.40
2016,05,04,00,28,9.40
2016,05,04,00,29,9.40
2016,05,04,00,30,9.40
2016,05,04,00,31,9.40
2016,05,04,00,32,9.40
2016,05,04,00,33,9.30
2016,05,04,00,34,9.30
2016,05,04,00,35,9.30
2016,05,04,00,36,9.30
2016,05,04,00,37,9.20
2016,05,04,00,38,9.20
2016,05,04,00,39,9.20
2016,05,04,00,40,9.20
2016,05,04,00,41,9.20
2016,05,04,00,42,9.10
2016,05,04,00,43,9.10
2016,05,04,00,44,9.10
2016,05,04,00,45,9.10
2016,05,04,00,46,9.00
2016,05,04,00,47,9.00
2016,05,04,00,48,9.00
2016,05,04,00,49,9.00
2016,05,04,00,50,8.90
2016,05,04,00,51,8.90
2016,05,04,00,52,8.90
2016,05,04,00,53,8.90
2016,05,04,00,54,8.90
2016,05,04,00,55,8.90
2016,05,04,00,56,8.80
2016,05,04,00,57,8.80
2016,05,04,00,58,8.80
2016,05,04,00,59,8.70
2016,05,04,01,00,8.70
2016,05,04,01,01,8.70
2016,05,04,01,02,8.60
2016,05,04,01,03,8.60
2016,05,04,01,04,8.50
2016,05,04,01,05,8.50
2016,05,04,01,06,8.50
2016,05,04,01,07,8.50
2016,05,04,01,08,8.50
2016,05,04,01,09,8.60
2016,05,04,01,10,8.60
2016,05,04,01,11,8.50
2016,05,04,01,12,8.50
2016,05,04,01,13,8.50
2016,05,04,01,14,8.50
2016,05,04,01,15,8.50
2016,05,04,01,16,8.50
2016,05,04,01,17,8.50
2016,05,04,01,18,8.50
2016,05,04,01,19,8.40
2016,05,04,01,20,8.40
2016,05,04,01,21,8.40
2016,05,04,01,22,8.40
2016,05,04,01,23,8.40
2016,05,04,01,24,8.30
2016,05,04,01,25,8.30
2016,05,04,01,26,8.30
2016,05,04,01,27,8.30
2016,05,04,01,28,8.30
2016,05,04,01,29,8.30
2016,05,04,01,30,8.20
2016,05,04,01,31,8.20
2016,05,04,01,32,8.20
2016,05,04,01,33,8.20
2016,05,04,01,34,8.20
2016,05,04,01,35,8.10
2016,05,04,01,36,8.10
2016,05,04,01,37,8.10
2016,05,04,01,38,8.10
2016,05,04,01,39,8.00
2016,05,04,01,40,8.00
2016,05,04,01,41,8.00
2016,05,04,01,42,7.90
2016,05,04,01,43,7.90
2016,05,04,01,44,7.90
2016,05,04,01,45,7.90
2016,05,04,01,46,7.90
2016,05,04,01,47,7.90
2016,05,04,01,48,7.90
2016,05,04,01,49,7.90
2016,05,04,01,50,7.90
2016,05,04,01,51,7.90
2016,05,04,01,52,7.90
2016,05,04,01,53,7.90
2016,05,04,01,54,7.90
2016,05,04,01,55,7.90
2016,05,04,01,56,7.90
2016,05,04,01,57,7.90
2016,05,04,01,58,7.90
2016,05,04,01,59,7.90
2016,05,04,02,00,7.80
2016,05,04,02,01,7.80
2016,05,04,02,02,7.80
2016,05,04,02,03,7.80
2016,05,04,02,04,7.80
2016,05,04,02,05,7.80
2016,05,04,02,06,7.80
2016,05,04,02,07,7.80
2016,05,04,02,08,7.80
2016,05,04,02,09,7.80
2016,05,04,02,10,7.80
2016,05,04,02,11,7.80
2016,05,04,02,12,7.80
2016,05,04,02,13,7.70
2016,05,04,02,14,7.70
2016,05,04,02,15,7.70
2016,05,04,02,16,7.70
2016,05,04,02,17,7.70
2016,05,04,02,18,7.70
2016,05,04,02,19,7.60
2016,05,04,02,20,7.60
2016,05,04,02,21,7.60
2016,05,04,02,22,7.60
2016,05,04,02,23,7.60
2016,05,04,02,24,7.60
2016,05,04,02,25,7.50
2016,05,04,02,26,7.50
2016,05,04,02,27,7.50
2016,05,04,02,28,7.50
2016,05,04,02,29,7.50
2016,05,04,02,30,7.50
2016,05,04,02,31,7.50
2016,05,04,02,32,7.50
2016,05,04,02,33,7.50
2016,05,04,02,34,7.50
2016,05,04,02,35,7.40
2016,05,04,02,36,7.40
2016,05,04,02,37,7.40
2016,05,04,02,38,7.40
2016,05,04,02,39,7.40
2016,05,04,02,40,7.40
2016,05,04,02,41,7.40
2016,05,04,02,42,7.40
2016,05,04,02,43,7.40
2016,05,04,02,44,7.40
2016,05,04,02,45,7.40
2016,05,04,02,46,7.40
2016,05,04,02,47,7.30
2016,05,04,02,48,7.30
2016,05,04,02,49,7.30
2016,05,04,02,50,7.30
2016,05,04,02,51,7.30
2016,05,04,02,52,7.30
2016,05,04,02,53,7.30
2016,05,04,02,54,7.20
2016,05,04,02,55,7.20
2016,05,04,02,56,7.20
2016,05,04,02,57,7.20
2016,05,04,02,58,7.10
2016,05,04,02,59,7.10
2016,05,04,03,00,7.10
2016,05,04,03,01,7.10
2016,05,04,03,02,7.10
2016,05,04,03,03,7.10
2016,05,04,03,04,7.10
2016,05,04,03,05,7.00
2016,05,04,03,06,7.00
2016,05,04,03,07,7.00
2016,05,04,03,08,7.00
2016,05,04,03,09,6.90
2016,05,04,03,10,6.90
2016,05,04,03,11,6.90
2016,05,04,03,12,6.90
2016,05,04,03,13,6.90
2016,05,04,03,14,7.00
2016,05,04,03,15,7.00
2016,05,04,03,16,7.00
2016,05,04,03,17,7.00
2016,05,04,03,18,7.00
2016,05,04,03,19,7.00
2016,05,04,03,20,7.00
2016,05,04,03,21,7.00
2016,05,04,03,22,7.00
2016,05,04,03,23,6.90
2016,05,04,03,24,6.90
2016,05,04,03,25,6.90
2016,05,04,03,26,6.90
2016,05,04,03,27,6.90
2016,05,04,03,28,6.90
2016,05,04,03,29,6.90
2016,05,04,03,30,6.90
2016,05,04,03,31,6.90
2016,05,04,03,32,6.90
2016,05,04,03,33,6.90
2016,05,04,03,34,6.90
2016,05,04,03,35,6.90
2016,05,04,03,36,6.80
2016,05,04,03,37,6.80
2016,05,04,03,38,6.80
2016,05,04,03,39,6.80
2016,05,04,03,40,6.70
2016,05,04,03,41,6.70
2016,05,04,03,42,6.70
2016,05,04,03,43,6.60
2016,05,04,03,44,6.60
2016,05,04,03,45,6.60
2016,05,04,03,46,6.60
2016,05,04,03,47,6.60
2016,05,04,03,48,6.70
2016,05,04,03,49,6.70
2016,05,04,03,50,6.70
2016,05,04,03,51,6.70
2016,05,04,03,52,6.60
2016,05,04,03,53,6.60
2016,05,04,03,54,6.60
2016,05,04,03,55,6.60
2016,05,04,03,56,6.60
2016,05,04,03,57,6.60
2016,05,04,03,58,6.60
2016,05,04,03,59,6.60
2016,05,04,04,00,6.60
2016,05,04,04,01,6.60
2016,05,04,04,02,6.60
2016,05,04,04,03,6.60
2016,05,04,04,04,6.60
2016,05,04,04,05,6.60
2016,05,04,04,06,6.60
2016,05,04,04,07,6.60
2016,05,04,04,08,6.60
2016,05,04,04,09,6.60
2016,05,04,04,10,6.60
2016,05,04,04,11,6.60
2016,05,04,04,12,6.60
2016,05,04,04,13,6.50
2016,05,04,04,14,6.50
2016,05,04,04,15,6.50
2016,05,04,04,16,6.50
2016,05,04,04,17,6.50
2016,05,04,04,18,6.50
2016,05,04,04,19,6.50
2016,05,04,04,20,6.50
2016,05,04,04,21,6.50
2016,05,04,04,22,6.50
2016,05,04,04,23,6.40
2016,05,04,04,24,6.40
2016,05,04,04,25,6.40
2016,05,04,04,26,6.40
2016,05,04,04,27,6.40
2016,05,04,04,28,6.40
2016,05,04,04,29,6.40
2016,05,04,04,30,6.40
2016,05,04,04,31,6.40
2016,05,04,04,32,6.40
2016,05,04,04,33,6.40
2016,05,04,04,34,6.40
2016,05,04,04,35,6.40
2016,05,04,04,36,6.40
2016,05,04,04,37,6.40
2016,05,04,04,38,6.40
2016,05,04,04,39,6.40
2016,05,04,04,40,6.40
2016,05,04,04,41,6.40
2016,05,04,04,42,6.40
2016,05,04,04,43,6.30
2016,05,04,04,44,6.30
2016,05,04,04,45,6.30
2016,05,04,04,46,6.30
2016,05,04,04,47,6.30
2016,05,04,04,48,6.30
2016,05,04,04,49,6.30
2016,05,04,04,50,6.30
2016,05,04,04,51,6.30
2016,05,04,04,52,6.30
2016,05,04,04,53,6.30
2016,05,04,04,54,6.30
2016,05,04,04,55,6.30
2016,05,04,04,56,6.30
2016,05,04,04,57,6.30
2016,05,04,04,58,6.30
2016,05,04,04,59,6.30
2016,05,04,05,00,6.30
2016,05,04,05,01,6.30
2016,05,04,05,02,6.30
2016,05,04,05,03,6.20
2016,05,04,05,04,6.20
2016,05,04,05,05,6.20
2016,05,04,05,06,6.10
2016,05,04,05,07,6.10
2016,05,04,05,08,6.10
2016,05,04,05,09,6.10
2016,05,04,05,10,6.10
2016,05,04,05,11,6.10
2016,05,04,05,12,6.10
2016,05,04,05,13,6.10
2016,05,04,05,14,6.10
2016,05,04,05,15,6.10
2016,05,04,05,16,6.10
2016,05,04,05,17,6.10
2016,05,04,05,18,6.10
2016,05,04,05,19,6.10
2016,05,04,05,20,6.10
2016,05,04,05,21,6.10
2016,05,04,05,22,6.10
2016,05,04,05,23,6.10
2016,05,04,05,24,6.10
2016,05,04,05,25,6.10
2016,05,04,05,26,6.10
2016,05,04,05,27,6.10
2016,05,04,05,28,6.10
2016,05,04,05,29,6.20
2016,05,04,05,30,6.20
2016,05,04,05,31,6.20
2016,05,04,05,32,6.20
2016,05,04,05,33,6.20
2016,05,04,05,34,6.20
2016,05,04,05,35,6.20
2016,05,04,05,36,6.30
2016,05,04,05,37,6.30
2016,05,04,05,38,6.30
2016,05,04,05,39,6.30
2016,05,04,05,40,6.30
2016,05,04,05,41,6.30
2016,05,04,05,42,6.20
2016,05,04,05,43,6.20
2016,05,04,05,44,6.20
2016,05,04,05,45,6.20
2016,05,04,05,46,6.20
2016,05,04,05,47,6.20
2016,05,04,05,48,6.20
2016,05,04,05,49,6.10
2016,05,04,05,50,6.10
2016,05,04,05,51,6.10
2016,05,04,05,52,6.10
2016,05,04,05,53,6.10
2016,05,04,05,54,6.10
2016,05,04,05,55,6.00
2016,05,04,05,56,6.00
2016,05,04,05,57,6.00
2016,05,04,05,58,6.00
2016,05,04,05,59,6.00
2016,05,04,06,00,6.00
2016,05,04,06,01,5.90
2016,05,04,06,02,5.90
2016,05,04,06,03,5.90
2016,05,04,06,04,5.90
2016,05,04,06,05,5.90
2016,05,04,06,06,5.90
2016,05,04,06,07,5.90
2016,05,04,06,08,5.90
2016,05,04,06,09,5.90
2016,05,04,06,10,5.90
2016,05,04,06,11,5.90
2016,05,04,06,12,5.90
2016,05,04,06,13,5.90
2016,05,04,06,14,5.90
2016,05,04,06,15,5.90
2016,05,04,06,16,5.90
2016,05,04,06,17,5.90
2016,05,04,06,18,5.90
2016,05,04,06,19,5.90
2016,05,04,06,20,5.80
2016,05,04,06,21,5.80
2016,05,04,06,22,5.80
2016,05,04,06,23,5.80
2016,05,04,06,24,5.80
2016,05,04,06,25,5.80
2016,05,04,06,26,5.80
2016,05,04,06,27,5.80
2016,05,04,06,28,5.80
2016,05,04,06,29,5.80
2016,05,04,06,30,5.80
2016,05,04,06,31,5.90
2016,05,04,06,32,5.90
2016,05,04,06,33,5.90
2016,05,04,06,34,5.90
2016,05,04,06,35,6.00
2016,05,04,06,36,6.00
2016,05,04,06,37,6.00
2016,05,04,06,38,6.00
2016,05,04,06,39,6.10
2016,05,04,06,40,6.10
2016,05,04,06,41,6.10
2016,05,04,06,42,6.10
2016,05,04,06,43,6.10
2016,05,04,06,44,6.10
2016,05,04,06,45,6.10
2016,05,04,06,46,6.10
2016,05,04,06,47,6.10
2016,05,04,06,48,6.10
2016,05,04,06,49,6.20
2016,05,04,06,50,6.20
2016,05,04,06,51,6.20
2016,05,04,06,52,6.20
2016,05,04,06,53,6.20
2016,05,04,06,54,6.30
2016,05,04,06,55,6.30
2016,05,04,06,56,6.30
2016,05,04,06,57,6.30
2016,05,04,06,58,6.30
2016,05,04,06,59,6.30
2016,05,04,07,00,6.40
2016,05,04,07,01,6.40
2016,05,04,07,02,6.40
2016,05,04,07,03,6.40
2016,05,04,07,04,6.40
2016,05,04,07,05,6.40
2016,05,04,07,06,6.40
2016,05,04,07,07,6.40
2016,05,04,07,08,6.50
2016,05,04,07,09,6.50
2016,05,04,07,10,6.50
2016,05,04,07,11,6.50
2016,05,04,07,12,6.50
2016,05,04,07,13,6.50
2016,05,04,07,14,6.60
2016,05,04,07,15,6.60
2016,05,04,07,16,6.60
2016,05,04,07,17,6.60
2016,05,04,07,18,6.60
2016,05,04,07,19,6.60
2016,05,04,07,20,6.60
2016,05,04,07,21,6.60
2016,05,04,07,22,6.60
2016,05,04,07,23,6.60
2016,05,04,07,24,6.70
2016,05,04,07,25,6.70
2016,05,04,07,26,6.80
2016,05,04,07,27,6.80
2016,05,04,07,28,6.90
2016,05,04,07,29,7.00
2016,05,04,07,30,7.00
2016,05,04,07,31,7.10
2016,05,04,07,32,7.20
2016,05,04,07,33,7.30
2016,05,04,07,34,7.40
2016,05,04,07,35,7.40
2016,05,04,07,36,7.50
2016,05,04,07,37,7.60
2016,05,04,07,38,7.60
2016,05,04,07,39,7.70
2016,05,04,07,40,7.70
2016,05,04,07,41,7.70
2016,05,04,07,42,7.70
2016,05,04,07,43,7.70
2016,05,04,07,44,7.70
2016,05,04,07,45,7.70
2016,05,04,07,46,7.70
2016,05,04,07,47,7.70
2016,05,04,07,48,7.70
2016,05,04,07,49,7.70
2016,05,04,07,50,7.70
2016,05,04,07,51,7.70
2016,05,04,07,52,7.70
2016,05,04,07,53,7.70
2016,05,04,07,54,7.70
2016,05,04,07,55,7.60
2016,05,04,07,56,7.60
2016,05,04,07,57,7.60
2016,05,04,07,58,7.60
2016,05,04,07,59,7.60
2016,05,04,08,00,7.60
2016,05,04,08,01,7.60
2016,05,04,08,02,7.60
2016,05,04,08,03,7.60
2016,05,04,08,04,7.70
2016,05,04,08,05,7.70
2016,05,04,08,06,7.80
2016,05,04,08,07,7.80
2016,05,04,08,08,7.80
2016,05,04,08,09,7.80
2016,05,04,08,10,7.80
2016,05,04,08,11,7.80
2016,05,04,08,12,7.90
2016,05,04,08,13,7.90
2016,05,04,08,14,7.90
2016,05,04,08,15,7.90
2016,05,04,08,16,7.90
2016,05,04,08,17,7.90
2016,05,04,08,18,7.90
2016,05,04,08,19,7.90
2016,05,04,08,20,7.90
2016,05,04,08,21,7.90
2016,05,04,08,22,7.90
2016,05,04,08,23,7.90
2016,05,04,08,24,8.00
2016,05,04,08,25,8.00
2016,05,04,08,26,8.00
2016,05,04,08,27,8.00
2016,05,04,08,28,8.00
2016,05,04,08,29,8.00
2016,05,04,08,30,8.10
2016,05,04,08,31,8.10
2016,05,04,08,32,8.10
2016,05,04,08,33,8.10
2016,05,04,08,34,8.10
2016,05,04,08,35,8.20
2016,05,04,08,36,8.20
2016,05,04,08,37,8.20
2016,05,04,08,38,8.20
2016,05,04,08,39,8.30
2016,05,04,08,40,8.30
2016,05,04,08,41,8.40
2016,05,04,08,42,8.40
2016,05,04,08,43,8.50
2016,05,04,08,44,8.50
2016,05,04,08,45,8.60
2016,05,04,08,46,8.60
2016,05,04,08,47,8.70
2016,05,04,08,48,8.70
2016,05,04,08,49,8.80
2016,05,04,08,50,8.80
2016,05,04,08,51,8.80
2016,05,04,08,52,8.90
2016,05,04,08,53,9.00
2016,05,04,08,54,9.00
2016,05,04,08,55,9.10
2016,05,04,08,56,9.20
2016,05,04,08,57,9.30
2016,05,04,08,58,9.30
2016,05,04,08,59,9.40
2016,05,04,09,00,9.40
2016,05,04,09,01,9.50
2016,05,04,09,02,9.50
2016,05,04,09,03,9.60
2016,05,04,09,04,9.60
2016,05,04,09,05,9.70
2016,05,04,09,06,9.80
2016,05,04,09,07,9.80
2016,05,04,09,08,9.80
2016,05,04,09,09,9.90
2016,05,04,09,10,10.00
2016,05,04,09,11,10.00
2016,05,04,09,12,10.10
2016,05,04,09,13,10.20
2016,05,04,09,14,10.20
2016,05,04,09,15,10.30
2016,05,04,09,16,10.30
2016,05,04,09,17,10.40
2016,05,04,09,18,10.40
2016,05,04,09,19,10.40
2016,05,04,09,20,10.50
2016,05,04,09,21,10.50
2016,05,04,09,22,10.60
2016,05,04,09,23,10.60
2016,05,04,09,24,10.70
2016,05,04,09,25,10.70
2016,05,04,09,26,10.80
2016,05,04,09,27,10.80
2016,05,04,09,28,10.90
2016,05,04,09,29,10.90
2016,05,04,09,30,10.90
2016,05,04,09,31,11.00
2016,05,04,09,32,11.00
2016,05,04,09,33,11.10
2016,05,04,09,34,11.10
2016,05,04,09,35,11.10
2016,05,04,09,36,11.20
2016,05,04,09,37,11.20
2016,05,04,09,38,11.20
2016,05,04,09,39,11.20
2016,05,04,09,40,11.30
2016,05,04,09,41,11.30
2016,05,04,09,42,11.40
2016,05,04,09,43,11.40
2016,05,04,09,44,11.50
2016,05,04,09,45,11.50
2016,05,04,09,46,11.60
2016,05,04,09,47,11.70
2016,05,04,09,48,11.80
2016,05,04,09,49,11.80
2016,05,04,09,50,11.80
2016,05,04,09,51,11.90
2016,05,04,09,52,12.00
2016,05,04,09,53,12.20
2016,05,04,09,54,12.30
2016,05,04,09,55,12.40
2016,05,04,09,56,12.50
2016,05,04,09,57,12.60
2016,05,04,09,58,12.60
2016,05,04,09,59,12.70
2016,05,04,10,00,12.70
2016,05,04,10,01,12.80
2016,05,04,10,02,12.80
2016,05,04,10,03,12.90
2016,05,04,10,04,13.00
2016,05,04,10,05,13.00
2016,05,04,10,06,13.10
2016,05,04,10,07,13.10
2016,05,04,10,08,13.10
2016,05,04,10,09,13.10
2016,05,04,10,10,13.20
2016,05,04,10,11,13.20
2016,05,04,10,12,13.30
2016,05,04,10,13,13.40
2016,05,04,10,14,13.40
2016,05,04,10,15,13.50
2016,05,04,10,16,13.50
2016,05,04,10,17,13.60
2016,05,04,10,18,13.60
2016,05,04,10,19,13.70
2016,05,04,10,20,13.70
2016,05,04,10,21,13.70
2016,05,04,10,22,13.70
2016,05,04,10,23,13.70
2016,05,04,10,24,13.60
2016,05,04,10,25,13.60
2016,05,04,10,26,13.70
2016,05,04,10,27,13.70
2016,05,04,10,28,13.70
2016,05,04,10,29,13.70
2016,05,04,10,30,13.80
2016,05,04,10,31,13.80
2016,05,04,10,32,13.90
2016,05,04,10,33,13.90
2016,05,04,10,34,14.00
2016,05,04,10,35,14.00
2016,05,04,10,36,14.10
2016,05,04,10,37,14.10
2016,05,04,10,38,14.10
2016,05,04,10,39,14.10
2016,05,04,10,40,14.20
2016,05,04,10,41,14.30
2016,05,04,10,42,14.30
2016,05,04,10,43,14.40
2016,05,04,10,44,14.60
2016,05,04,10,45,14.60
2016,05,04,10,46,14.60
2016,05,04,10,47,14.70
2016,05,04,10,48,14.70
2016,05,04,10,49,14.80
2016,05,04,10,50,14.80
2016,05,04,10,51,14.80
2016,05,04,10,52,14.80
2016,05,04,10,53,14.80
2016,05,04,10,54,14.80
2016,05,04,10,55,14.70
2016,05,04,10,56,14.60
2016,05,04,10,57,14.50
2016,05,04,10,58,14.40
2016,05,04,10,59,14.20
2016,05,04,11,00,14.10
2016,05,04,11,01,14.10
2016,05,04,11,02,14.10
2016,05,04,11,03,14.10
2016,05,04,11,04,14.10
2016,05,04,11,05,14.10
2016,05,04,11,06,14.10
2016,05,04,11,07,14.10
2016,05,04,11,08,14.10
2016,05,04,11,09,14.10
2016,05,04,11,10,14.20
2016,05,04,11,11,14.10
2016,05,04,11,12,14.10
2016,05,04,11,13,14.00
2016,05,04,11,14,14.00
2016,05,04,11,15,14.00
2016,05,04,11,16,14.10
2016,05,04,11,17,14.10
2016,05,04,11,18,14.10
2016,05,04,11,19,14.00
2016,05,04,11,20,14.00
2016,05,04,11,21,13.90
2016,05,04,11,22,13.80
2016,05,04,11,23,13.80
2016,05,04,11,24,13.70
2016,05,04,11,25,13.70
2016,05,04,11,26,13.70
2016,05,04,11,27,13.70
2016,05,04,11,28,13.70
2016,05,04,11,29,13.80
2016,05,04,11,30,13.80
2016,05,04,11,31,13.90
2016,05,04,11,32,14.00
2016,05,04,11,33,14.10
2016,05,04,11,34,14.10
2016,05,04,11,35,14.20
2016,05,04,11,36,14.30
2016,05,04,11,37,14.40
2016,05,04,11,38,14.40
2016,05,04,11,39,14.40
2016,05,04,11,40,14.40
2016,05,04,11,41,14.40
2016,05,04,11,42,14.40
2016,05,04,11,43,14.40
2016,05,04,11,44,14.40
2016,05,04,11,45,14.50
2016,05,04,11,46,14.60
2016,05,04,11,47,14.60
2016,05,04,11,48,14.70
2016,05,04,11,49,14.70
2016,05,04,11,50,14.80
2016,05,04,11,51,14.90
2016,05,04,11,52,14.90
2016,05,04,11,53,14.90
2016,05,04,11,54,14.90
2016,05,04,11,55,14.90
2016,05,04,11,56,14.80
2016,05,04,11,57,14.80
2016,05,04,11,58,14.80
2016,05,04,11,59,14.80
2016,05,04,12,00,14.70
2016,05,04,12,01,14.70
2016,05,04,12,02,14.70
2016,05,04,12,03,14.70
2016,05,04,12,04,14.70
2016,05,04,12,05,14.70
2016,05,04,12,06,14.70
2016,05,04,12,07,14.70
2016,05,04,12,08,14.80
2016,05,04,12,09,14.70
2016,05,04,12,10,14.70
2016,05,04,12,11,14.70
2016,05,04,12,12,14.70
2016,05,04,12,13,14.70
2016,05,04,12,14,14.70
2016,05,04,12,15,14.60
2016,05,04,12,16,14.60
2016,05,04,12,17,14.70
2016,05,04,12,18,14.70
2016,05,04,12,19,14.80
2016,05,04,12,20,14.80
2016,05,04,12,21,14.70
2016,05,04,12,22,14.80
2016,05,04,12,23,14.80
2016,05,04,12,24,14.70
2016,05,04,12,25,14.70
2016,05,04,12,26,14.70
2016,05,04,12,27,14.70
2016,05,04,12,28,14.80
2016,05,04,12,29,14.80
2016,05,04,12,30,14.80
2016,05,04,12,31,14.80
2016,05,04,12,32,14.80
2016,05,04,12,33,14.70
2016,05,04,12,34,14.70
2016,05,04,12,35,14.70
2016,05,04,12,36,14.80
2016,05,04,12,37,14.80
2016,05,04,12,38,14.80
2016,05,04,12,39,14.80
2016,05,04,12,40,14.90
2016,05,04,12,41,14.90
2016,05,04,12,42,15.00
2016,05,04,12,43,15.10
2016,05,04,12,44,15.10
2016,05,04,12,45,15.20
2016,05,04,12,46,15.20
2016,05,04,12,47,15.20
2016,05,04,12,48,15.30
2016,05,04,12,49,15.30
2016,05,04,12,50,15.30
2016,05,04,12,51,15.40
2016,05,04,12,52,15.40
2016,05,04,12,53,15.40
2016,05,04,12,54,15.40
2016,05,04,12,55,15.50
2016,05,04,12,56,15.50
2016,05,04,12,57,15.50
2016,05,04,12,58,15.50
2016,05,04,12,59,15.50
2016,05,04,13,00,15.50
2016,05,04,13,01,15.50
2016,05,04,13,02,15.50
2016,05,04,13,03,15.50
2016,05,04,13,04,15.50
2016,05,04,13,05,15.50
2016,05,04,13,06,15.40
2016,05,04,13,07,15.40
2016,05,04,13,08,15.40
2016,05,04,13,09,15.40
2016,05,04,13,10,15.50
2016,05,04,13,11,15.50
2016,05,04,13,12,15.50
2016,05,04,13,13,15.70
2016,05,04,13,14,15.80
2016,05,04,13,15,15.80
2016,05,04,13,16,15.80
2016,05,04,13,17,15.80
2016,05,04,13,18,15.80
2016,05,04,13,19,15.90
2016,05,04,13,20,15.90
2016,05,04,13,21,15.90
2016,05,04,13,22,16.00
2016,05,04,13,23,16.00
2016,05,04,13,24,16.00
2016,05,04,13,25,16.00
2016,05,04,13,26,16.00
2016,05,04,13,27,16.00
2016,05,04,13,28,16.00
2016,05,04,13,29,16.00
2016,05,04,13,30,16.00
2016,05,04,13,31,16.00
2016,05,04,13,32,15.90
2016,05,04,13,33,15.90
2016,05,04,13,34,15.90
2016,05,04,13,35,15.90
2016,05,04,13,36,15.80
2016,05,04,13,37,15.80
2016,05,04,13,38,15.90
2016,05,04,13,39,15.90
2016,05,04,13,40,15.80
2016,05,04,13,41,15.80
2016,05,04,13,42,15.80
2016,05,04,13,43,15.80
2016,05,04,13,44,15.90
2016,05,04,13,45,15.90
2016,05,04,13,46,16.00
2016,05,04,13,47,16.00
2016,05,04,13,48,15.90
2016,05,04,13,49,15.90
2016,05,04,13,50,15.90
2016,05,04,13,51,15.90
2016,05,04,13,52,15.80
2016,05,04,13,53,15.80
2016,05,04,13,54,15.80
2016,05,04,13,55,15.80
2016,05,04,13,56,15.80
2016,05,04,13,57,15.80
2016,05,04,13,58,15.80
2016,05,04,13,59,15.80
2016,05,04,14,00,15.80
2016,05,04,14,01,15.80
2016,05,04,14,02,15.80
2016,05,04,14,03,15.80
2016,05,04,14,04,15.80
2016,05,04,14,05,15.70
2016,05,04,14,06,15.70
2016,05,04,14,07,15.70
2016,05,04,14,08,15.70
2016,05,04,14,09,15.70
2016,05,04,14,10,15.70
2016,05,04,14,11,15.70
2016,05,04,14,12,15.60
2016,05,04,14,13,15.60
2016,05,04,14,14,15.50
2016,05,04,14,15,15.50
2016,05,04,14,16,15.50
2016,05,04,14,17,15.50
2016,05,04,14,18,15.40
2016,05,04,14,19,15.40
2016,05,04,14,20,15.40
2016,05,04,14,21,15.40
2016,05,04,14,22,15.40
2016,05,04,14,23,15.40
2016,05,04,14,24,15.40
2016,05,04,14,25,15.40
2016,05,04,14,26,15.40
2016,05,04,14,27,15.40
2016,05,04,14,28,15.30
2016,05,04,14,29,15.30
2016,05,04,14,30,15.20
2016,05,04,14,31,15.20
2016,05,04,14,32,15.20
2016,05,04,14,33,15.20
2016,05,04,14,34,15.20
2016,05,04,14,35,15.20
2016,05,04,14,36,15.20
2016,05,04,14,37,15.10
2016,05,04,14,38,15.10
2016,05,04,14,39,15.10
2016,05,04,14,40,15.20
2016,05,04,14,41,15.20
2016,05,04,14,42,15.20
2016,05,04,14,43,15.10
2016,05,04,14,44,15.10
2016,05,04,14,45,15.10
2016,05,04,14,46,15.10
2016,05,04,14,47,15.00
2016,05,04,14,48,15.10
2016,05,04,14,49,15.10
2016,05,04,14,50,15.00
2016,05,04,14,51,15.00
2016,05,04,14,52,15.10
2016,05,04,14,53,15.20
2016,05,04,14,54,15.30
2016,05,04,14,55,15.30
2016,05,04,14,56,15.20
2016,05,04,14,57,15.20
2016,05,04,14,58,15.20
2016,05,04,14,59,15.20
2016,05,04,15,00,15.20
2016,05,04,15,01,15.40
2016,05,04,15,02,15.50
2016,05,04,15,03,15.50
2016,05,04,15,04,15.60
2016,05,04,15,05,15.70
2016,05,04,15,06,15.70
2016,05,04,15,07,15.70
2016,05,04,15,08,15.70
2016,05,04,15,09,15.60
2016,05,04,15,10,15.50
2016,05,04,15,11,15.40
2016,05,04,15,12,15.40
2016,05,04,15,13,15.30
2016,05,04,15,14,15.30
2016,05,04,15,15,15.20
2016,05,04,15,16,15.10
2016,05,04,15,17,15.10
2016,05,04,15,18,15.10
2016,05,04,15,19,15.20
2016,05,04,15,20,15.10
2016,05,04,15,21,15.20
2016,05,04,15,22,15.20
2016,05,04,15,23,15.10
2016,05,04,15,24,15.10
2016,05,04,15,25,15.10
2016,05,04,15,26,15.20
2016,05,04,15,27,15.20
2016,05,04,15,28,15.20
2016,05,04,15,29,15.20
2016,05,04,15,30,15.30
2016,05,04,15,31,15.40
2016,05,04,15,32,15.40
2016,05,04,15,33,15.50
2016,05,04,15,34,15.60
2016,05,04,15,35,15.60
2016,05,04,15,36,15.70
2016,05,04,15,37,15.80
2016,05,04,15,38,15.90
2016,05,04,15,39,16.00
2016,05,04,15,40,16.00
2016,05,04,15,41,16.00
2016,05,04,15,42,16.00
2016,05,04,15,43,16.00
2016,05,04,15,44,15.90
2016,05,04,15,45,15.80
2016,05,04,15,46,15.80
2016,05,04,15,47,15.80
2016,05,04,15,48,15.90
2016,05,04,15,49,15.90
2016,05,04,15,50,15.90
2016,05,04,15,51,15.90
2016,05,04,15,52,15.90
2016,05,04,15,53,15.90
2016,05,04,15,54,15.90
2016,05,04,15,55,15.90
2016,05,04,15,56,15.80
2016,05,04,15,57,15.80
2016,05,04,15,58,15.80
2016,05,04,15,59,15.80
2016,05,04,16,00,15.80
2016,05,04,16,01,15.80
2016,05,04,16,02,15.80
2016,05,04,16,03,15.70
2016,05,04,16,04,15.70
2016,05,04,16,05,15.70
2016,05,04,16,06,15.70
2016,05,04,16,07,15.70
2016,05,04,16,08,15.80
2016,05,04,16,09,15.80
2016,05,04,16,10,15.80
2016,05,04,16,11,15.80
2016,05,04,16,12,15.80
2016,05,04,16,13,15.80
2016,05,04,16,14,15.80
2016,05,04,16,15,15.70
2016,05,04,16,16,15.70
2016,05,04,16,17,15.70
2016,05,04,16,18,15.70
2016,05,04,16,19,15.80
2016,05,04,16,20,15.80
2016,05,04,16,21,15.90
2016,05,04,16,22,15.90
2016,05,04,16,23,15.90
2016,05,04,16,24,16.00
2016,05,04,16,25,16.00
2016,05,04,16,26,16.10
2016,05,04,16,27,16.10
2016,05,04,16,28,16.00
2016,05,04,16,29,16.00
2016,05,04,16,30,15.90
2016,05,04,16,31,15.80
2016,05,04,16,32,15.80
2016,05,04,16,33,15.70
2016,05,04,16,34,15.80
2016,05,04,16,35,15.80
2016,05,04,16,36,15.80
2016,05,04,16,37,15.90
2016,05,04,16,38,15.90
2016,05,04,16,39,15.90
2016,05,04,16,40,15.80
2016,05,04,16,41,15.70
2016,05,04,16,42,15.80
2016,05,04,16,43,15.70
2016,05,04,16,44,15.70
2016,05,04,16,45,15.70
2016,05,04,16,46,15.70
2016,05,04,16,47,15.60
2016,05,04,16,48,15.60
2016,05,04,16,49,15.60
2016,05,04,16,50,15.60
2016,05,04,16,51,15.60
2016,05,04,16,52,15.60
2016,05,04,16,53,15.50
2016,05,04,16,54,15.50
2016,05,04,16,55,15.40
2016,05,04,16,56,15.40
2016,05,04,16,57,15.50
2016,05,04,16,58,15.50
2016,05,04,16,59,15.50
2016,05,04,17,00,15.50
2016,05,04,17,01,15.60
2016,05,04,17,02,15.60
2016,05,04,17,03,15.60
2016,05,04,17,04,15.70
2016,05,04,17,05,15.60
2016,05,04,17,06,15.60
2016,05,04,17,07,15.60
2016,05,04,17,08,15.60
2016,05,04,17,09,15.60
2016,05,04,17,10,15.50
2016,05,04,17,11,15.50
2016,05,04,17,12,15.50
2016,05,04,17,13,15.60
2016,05,04,17,14,15.60
2016,05,04,17,15,15.60
2016,05,04,17,16,15.60
2016,05,04,17,17,15.70
2016,05,04,17,18,15.70
2016,05,04,17,19,15.70
2016,05,04,17,20,15.80
2016,05,04,17,21,15.80
2016,05,04,17,22,15.80
2016,05,04,17,23,15.70
2016,05,04,17,24,15.70
2016,05,04,17,25,15.70
2016,05,04,17,26,15.70
2016,05,04,17,27,15.70
2016,05,04,17,28,15.80
2016,05,04,17,29,15.70
2016,05,04,17,30,15.60
2016,05,04,17,31,15.60
2016,05,04,17,32,15.50
2016,05,04,17,33,15.50
2016,05,04,17,34,15.50
2016,05,04,17,35,15.40
2016,05,04,17,36,15.40
2016,05,04,17,37,15.30
2016,05,04,17,38,15.30
2016,05,04,17,39,15.20
2016,05,04,17,40,15.20
2016,05,04,17,41,15.20
2016,05,04,17,42,15.20